Powrót do katalogu

STARLINK-37888

AktywnyŁącznośćVLEO
NORAD 69535·PAYLOAD·🇺🇸 United States

Wystrzelony Jun 12, 2026 z Cape Canaveral Space Force Station

Loading…

Następne Przeloty (najbliższe 24 godziny)

TLE

ŚwieżeSource: CelesTrak SupGP

Epoka: Sep 15, 2026, 04:11 UTC

1 69535C 26133AD  26258.17479167 -.00046369  00000+0 -13700-2 0  2588
2 69535  53.1571 254.8256 0001368  83.1916 257.7132 15.34414191    11

Śledź STARLINK-37888 w czasie rzeczywistym z AllMySat

Download on the App Store